RH
50 51 53 63 62 61 56 57 58 62 63 62 60 56 53 48 48 46 47 45 43 40 41 42 44 48 50 51 58 79 83 83 81 76 76 77 77 83 78 73 72 75 78
72 58 48 53 64 62 59 53 57 55 57 59 61 59 53 50 49 51 49 46 45 43 46 51 51 61 68 61 76 82 82 77 72 70 66 75 76 76 73 67 61 58 60
72 63 54 50 52 56 59 55 51 52 51 54 56 57 54 53 54 55 48 50 52 55 61 62 65 74 76 72 86 87 80 66 61 59 68 69 70 68 71 73 74 73 70
80 76 73 70 72 63 59 57 52 49 50 51 53 52 52 55 55 53 49 53 62 69 69 72 76 79 81 80 84 84 74 61 54 55 66 69 70 74 79 81 82 79 80
71 78 80 79 79 80 71 54 55 53 46 50 52 54 54 52 55 54 55 59 70 71 72 78 83 85 87 78 80 67 56 52 65 67 69 70 75 75 76 80 83 86 86
65 67 71 77 73 74 74 69 61 58 54 47 47 51 55 55 54 58 59 61 67 67 76 79 82 83 82 82 64 55 58 69 72 75 81 83 84 85 87 87 88 90 90
54 55 56 57 68 74 73 73 75 65 62 54 54 49 47 54 58 63 66 63 69 73 78 77 76 73 70 59 59 65 76 81 80 80 78 83 86 87 89 88 90 88 90
50 48 48 50 51 51 56 65 76 74 74 69 62 54 50 47 54 63 62 66 68 70 76 78 74 70 68 68 79 85 84 82 80 84 88 88 91 92 93 96 95 95 94
50 50 48 46 45 43 45 49 59 68 72 80 72 72 63 46 43 53 61 62 67 70 78 82 76 76 75 82 91 91 90 91 91 91 91 92 94 94 93 93 94 93 91
47 49 49 46 46 43 46 43 54 67 74 84 81 77 75 62 47 46 52 59 69 77 82 86 83 83 86 92 92 92 92 92 93 92 92 91 95 91 91 91 92 94 90
49 49 50 49 46 45 48 48 54 70 82 88 85 87 89 79 62 53 54 64 77 85 87 91 90 88 88 87 90 90 90 89 89 91 93 94 93 91 89 85 80 75 61
54 50 50 51 51 50 49 55 60 65 79 88 91 95 99 94 86 75 76 81 88 93 92 90 90 90 93 90 86 86 84 82 80 76 73 70 68 65 52 42 36 32 27
62 61 58 55 58 63 63 66 73 68 78 90 98 98 95 96 94 90 90 91 94 94 94 94 90 91 91 85 85 81 77 74 69 63 55 47 42 33 27 23 21 20 19
71 73 73 68 67 77 79 84 85 82 79 92 98 99 98 96 97 98 98 98 99 98 97 96 94 86 87 84 80 72 65 60 54 46 37 27 22 18 16 15 15 14 14
76 79 85 85 81 84 86 92 95 93 91 96 99 99 99 99 99 99 99 97 98 99 97 92 86 81 75 72 65 56 44 38 29 22 19 17 16 16 15 14 14 15 17
81 88 90 94 93 88 93 99 99 99 98 99 100 99 99 99 99 99 94 92 92 91 90 86 81 74 63 50 38 33 24 18 16 16 16 15 16 15 15 17 18 18 18
81 90 89 96 96 92 91 89 94 99 99 99 99 97 97 94 93 92 88 89 89 84 76 66 53 43 37 28 21 18 15 14 13 13 13 14 17 20 18 18 18 20 23
82 89 95 94 98 92 85 89 94 93 92 91 92 94 96 96 90 83 74 68 57 52 44 39 34 30 26 22 18 16 16 17 17 17 16 16 19 21 23 23 23 22 25
83 83 90 84 80 82 80 78 82 86 95 82 72 85 81 74 57 54 47 46 39 33 29 29 24 20 18 17 17 18 18 18 18 18 18 19 19 21 23 25 28 28 30
63 50 62 57 60 57 58 57 49 46 46 44 44 43 37 28 27 26 26 26 25 24 23 21 19 18 18 18 19 19 18 17 17 18 18 20 21 23 27 29 32 32 33
44 42 40 42 43 46 47 40 35 28 25 22 18 17 19 21 23 25 24 23 23 22 20 20 20 19 19 18 17 16 16 17 17 19 22 24 26 28 28 28 30 32 36
44 40 36 34 33 31 29 26 23 24 23 20 20 22 24 25 26 25 24 23 22 22 21 19 18 17 16 16 17 17 18 19 21 21 23 26 29 28 29 30 34 38 41
47 40 36 33 31 28 26 24 24 24 24 24 25 26 25 24 24 24 23 22 22 21 21 20 17 16 17 18 19 19 20 23 23 24 26 30 30 29 31 35 39 43 46
38 34 29 27 30 25 24 24 26 28 29 28 27 27 26 25 24 24 24 23 22 20 18 16 17 18 19 20 21 22 23 25 26 26 27 31 31 32 38 41 43 45 50
25 22 20 20 18 19 21 25 28 29 30 29 27 25 24 23 22 23 22 20 18 17 17 17 18 18 20 22 24 25 25 27 28 30 31 32 34 37 40 42 45 51 53
19 17 15 13 16 18 19 22 27 28 28 25 23 21 21 22 20 19 16 16 16 17 18 17 19 20 22 25 28 30 31 32 33 31 33 36 38 41 43 47 50 54 55